Hourly Weather Laguna de Duero

Today, 18 September, Friday

Time Temperature Precipitation Wind Pressure Humidity
00:00 +19°C° 0 mm 4 mps 698 mmHg 73%
01:00 +20°C° 0.7 mm 4 mps 698 mmHg 70%
02:00 +20°C° 0.7 mm 5 mps 697 mmHg 68%
03:00 +20°C° 0.7 mm 5 mps 697 mmHg 65%
04:00 +19°C° 0.6 mm 5 mps 697 mmHg 68%
05:00 +18°C° 0.6 mm 4 mps 697 mmHg 72%
06:00 +17°C° 0.6 mm 4 mps 697 mmHg 75%
07:00 +18°C° 0.1 mm 4 mps 697 mmHg 68%
08:00 +19°C° 0.1 mm 4 mps 698 mmHg 61%
09:00 +21°C° 0.1 mm 4 mps 698 mmHg 55%
10:00 +22°C° 0 mm 5 mps 698 mmHg 48%
11:00 +23°C° 0 mm 5 mps 698 mmHg 41%
12:00 +26°C° 0 mm 6 mps 698 mmHg 35%
13:00 +25°C° 0 mm 5 mps 698 mmHg 35%
14:00 +25°C° 0 mm 5 mps 698 mmHg 34%
15:00 +25°C° 0 mm 5 mps 697 mmHg 34%
16:00 +23°C° 0.1 mm 5 mps 697 mmHg 40%
17:00 +22°C° 0.1 mm 5 mps 697 mmHg 46%
18:00 +21°C° 0.1 mm 5 mps 697 mmHg 52%
19:00 +20°C° 0.4 mm 5 mps 698 mmHg 56%
20:00 +19°C° 0.4 mm 5 mps 698 mmHg 61%
21:00 +19°C° 0.4 mm 6 mps 698 mmHg 65%
22:00 +17°C° 0.2 mm 5 mps 698 mmHg 67%
23:00 +17°C° 0.2 mm 5 mps 698 mmHg 68%

Tomorrow, 19 September, Saturday

Time Temperature Precipitation Wind Pressure Humidity
00:00 +18°C° 0.2 mm 4 mps 697 mmHg 69%
01:00 +18°C° 0.1 mm 4 mps 697 mmHg 71%
02:00 +16°C° 0.1 mm 5 mps 697 mmHg 72%
03:00 +16°C° 0.1 mm 5 mps 697 mmHg 73%
04:00 +16°C° 1.5 mm 6 mps 697 mmHg 76%
05:00 +16°C° 1.5 mm 7 mps 697 mmHg 79%
06:00 +15°C° 1.5 mm 8 mps 697 mmHg 81%
07:00 +15°C° 1 mm 8 mps 698 mmHg 81%
08:00 +15°C° 1 mm 9 mps 698 mmHg 81%
09:00 +14°C° 1 mm 10 mps 699 mmHg 81%
10:00 +16°C° 0.2 mm 9 mps 699 mmHg 77%
11:00 +17°C° 0.2 mm 8 mps 699 mmHg 73%
12:00 +19°C° 0.2 mm 6 mps 700 mmHg 69%
13:00 +20°C° 0.1 mm 7 mps 700 mmHg 63%
14:00 +21°C° 0.1 mm 7 mps 700 mmHg 58%
15:00 +22°C° 0.1 mm 7 mps 700 mmHg 52%
16:00 +21°C° 0 mm 6 mps 700 mmHg 54%
17:00 +20°C° 0 mm 6 mps 700 mmHg 56%
18:00 +20°C° 0 mm 5 mps 700 mmHg 58%
19:00 +19°C° 0.1 mm 4 mps 700 mmHg 64%
20:00 +18°C° 0.1 mm 4 mps 701 mmHg 69%
21:00 +17°C° 0.1 mm 4 mps 701 mmHg 74%
22:00 +17°C° 0.1 mm 3 mps 701 mmHg 75%
23:00 +17°C° 0.1 mm 2 mps 701 mmHg 77%

Day after tomorrow, 20 September, Sunday

Time Temperature Precipitation Wind Pressure Humidity
00:00 +17°C° 0.1 mm 2 mps 701 mmHg 78%
01:00 +17°C° 0.1 mm 2 mps 701 mmHg 80%
02:00 +17°C° 0.1 mm 3 mps 701 mmHg 81%
03:00 +16°C° 0.1 mm 3 mps 701 mmHg 83%
04:00 +16°C° 0 mm 3 mps 701 mmHg 86%
05:00 +16°C° 0 mm 3 mps 701 mmHg 89%
06:00 +14°C° 0 mm 3 mps 701 mmHg 92%
07:00 +16°C° 0 mm 3 mps 701 mmHg 85%
08:00 +18°C° 0 mm 3 mps 701 mmHg 78%
09:00 +19°C° 0 mm 3 mps 702 mmHg 71%
10:00 +20°C° 0.1 mm 3 mps 702 mmHg 65%
11:00 +21°C° 0.1 mm 3 mps 702 mmHg 58%
12:00 +22°C° 0.1 mm 3 mps 702 mmHg 52%
13:00 +24°C° 0.3 mm 3 mps 702 mmHg 51%
14:00 +23°C° 0.3 mm 4 mps 701 mmHg 50%
15:00 +23°C° 0.3 mm 4 mps 701 mmHg 49%
16:00 +24°C° 0.1 mm 3 mps 701 mmHg 51%
17:00 +22°C° 0.1 mm 3 mps 701 mmHg 53%
18:00 +23°C° 0.1 mm 2 mps 701 mmHg 56%
19:00 +21°C° 0.8 mm 3 mps 701 mmHg 61%
20:00 +20°C° 0.8 mm 3 mps 701 mmHg 66%
21:00 +19°C° 0.8 mm 3 mps 702 mmHg 70%
22:00 +18°C° 0.1 mm 3 mps 701 mmHg 74%
23:00 +18°C° 0.1 mm 2 mps 701 mmHg 77%

21 September, Monday

Time Temperature Precipitation Wind Pressure Humidity
00:00 +17°C° 0.1 mm 2 mps 701 mmHg 80%
01:00 +18°C° 0.3 mm 1 mps 701 mmHg 82%
02:00 +16°C° 0.3 mm 1 mps 700 mmHg 84%
03:00 +16°C° 0.3 mm 1 mps 700 mmHg 86%
04:00 +16°C° 0.3 mm 1 mps 700 mmHg 88%
05:00 +15°C° 0.3 mm 1 mps 700 mmHg 89%
06:00 +15°C° 0.3 mm 1 mps 700 mmHg 91%
07:00 +16°C° 0.3 mm 1 mps 701 mmHg 85%
08:00 +17°C° 0.3 mm 2 mps 701 mmHg 79%
09:00 +18°C° 0.3 mm 2 mps 701 mmHg 73%
10:00 +19°C° 0.3 mm 3 mps 701 mmHg 66%
11:00 +20°C° 0.3 mm 3 mps 701 mmHg 58%
12:00 +21°C° 0.3 mm 3 mps 701 mmHg 51%
13:00 +22°C° 0 mm 3 mps 701 mmHg 47%
14:00 +22°C° 0 mm 3 mps 700 mmHg 43%
15:00 +24°C° 0 mm 2 mps 700 mmHg 39%
16:00 +23°C° 0 mm 2 mps 700 mmHg 42%
17:00 +21°C° 0 mm 2 mps 700 mmHg 46%
18:00 +21°C° 0 mm 2 mps 700 mmHg 50%
19:00 +20°C° 0 mm 2 mps 700 mmHg 54%
20:00 +19°C° 0 mm 2 mps 700 mmHg 58%
21:00 +18°C° 0 mm 2 mps 700 mmHg 63%
22:00 +18°C° 0.2 mm 2 mps 700 mmHg 67%
23:00 +17°C° 0.2 mm 2 mps 700 mmHg 70%

22 September, Tuesday

Time Temperature Precipitation Wind Pressure Humidity
00:00 +17°C° 0.2 mm 2 mps 699 mmHg 74%
01:00 +18°C° 0 mm 1 mps 699 mmHg 76%
02:00 +16°C° 0 mm 1 mps 699 mmHg 77%
03:00 +15°C° 0 mm 0 mps 699 mmHg 79%
04:00 +15°C° 0 mm 1 mps 699 mmHg 80%
05:00 +15°C° 0 mm 1 mps 699 mmHg 81%
06:00 +15°C° 0 mm 1 mps 699 mmHg 82%
07:00 +16°C° 0 mm 1 mps 699 mmHg 75%
08:00 +18°C° 0 mm 1 mps 700 mmHg 68%
09:00 +20°C° 0 mm 1 mps 700 mmHg 62%
10:00 +21°C° 0 mm 1 mps 700 mmHg 56%
11:00 +21°C° 0 mm 2 mps 700 mmHg 50%
12:00 +24°C° 0 mm 2 mps 700 mmHg 44%
13:00 +24°C° 0 mm 2 mps 700 mmHg 41%
14:00 +25°C° 0 mm 2 mps 700 mmHg 39%
15:00 +25°C° 0 mm 2 mps 700 mmHg 36%
16:00 +24°C° 0 mm 2 mps 700 mmHg 38%
17:00 +24°C° 0 mm 2 mps 699 mmHg 40%
18:00 +23°C° 0 mm 2 mps 699 mmHg 42%
19:00 +21°C° 0 mm 2 mps 700 mmHg 45%
20:00 +20°C° 0 mm 2 mps 700 mmHg 48%
21:00 +20°C° 0 mm 2 mps 700 mmHg 51%
22:00 +19°C° 0 mm 2 mps 700 mmHg 56%
23:00 +18°C° 0 mm 2 mps 700 mmHg 61%

23 September, Wednesday

Time Temperature Precipitation Wind Pressure Humidity
00:00 +19°C° 0 mm 1 mps 700 mmHg 66%
01:00 +18°C° 0 mm 2 mps 700 mmHg 68%
02:00 +17°C° 0 mm 2 mps 699 mmHg 70%
03:00 +17°C° 0 mm 2 mps 699 mmHg 71%
04:00 +17°C° 0 mm 2 mps 699 mmHg 73%
05:00 +17°C° 0 mm 2 mps 699 mmHg 75%
06:00 +16°C° 0 mm 2 mps 699 mmHg 76%
07:00 +17°C° 0.1 mm 2 mps 699 mmHg 74%
08:00 +18°C° 0.1 mm 2 mps 700 mmHg 72%
09:00 +19°C° 0.1 mm 2 mps 700 mmHg 69%
10:00 +19°C° 0.1 mm 3 mps 699 mmHg 65%
11:00 +20°C° 0.1 mm 3 mps 699 mmHg 60%
12:00 +21°C° 0.1 mm 4 mps 699 mmHg 56%
13:00 +21°C° 0 mm 4 mps 699 mmHg 50%
14:00 +22°C° 0 mm 5 mps 699 mmHg 45%
15:00 +23°C° 0 mm 5 mps 699 mmHg 39%
16:00 +22°C° 0.1 mm 5 mps 698 mmHg 44%
17:00 +21°C° 0.1 mm 5 mps 698 mmHg 49%
18:00 +20°C° 0.1 mm 5 mps 698 mmHg 54%
19:00 +19°C° 0.1 mm 5 mps 698 mmHg 57%
20:00 +17°C° 0.1 mm 5 mps 698 mmHg 60%
21:00 +16°C° 0.1 mm 5 mps 698 mmHg 63%
22:00 +15°C° 0 mm 5 mps 698 mmHg 63%
23:00 +14°C° 0 mm 5 mps 698 mmHg 62%
Show more